Date String (YYYY-MM-DD hh:mm:ss) UTC,Instrument flags,Ambient pressure (hPa),Sample flow (lpm),Bypass flow (lpm),Sample temperature (°C),Ambient temperature (°C),ASC tube jacket temperature (°C),LED temperature (°C),Box temperature (°C),Sample RH (%),Span deviation,Mass concentration (μg/m³),Mass concentration (μg/m³),Mass concentration (μg/m³)
DateTimeUTC,F1_M11,P_M11,Q1_M11,Q2_M11,T1_M11,T2_M11,T3_M11,T4_M11,T5_M11,U1_M11,ZSPAN_M11,X0_M11,X2_M11,X1_M11
2022-03-04 11:00:00,,0820.3,5.00,0.00,26.3,25.4,00.0,35.4,28.1,13.8,0000.2,0036.13,0016.32,0013.66
2022-03-04 11:01:00,,0820.3,5.01,0.00,26.3,25.5,00.0,35.4,28.1,13.9,0000.2,0035.61,0016.21,0013.62
2022-03-04 11:02:00,,0820.3,5.00,0.00,26.3,25.5,00.0,35.4,28.1,13.9,-000.1,0034.95,0016.15,0013.56
2022-03-04 11:03:00,,0820.3,4.99,0.00,26.3,25.5,00.0,35.4,28.1,14.0,-000.1,0035.08,0016.06,0013.49
2022-03-04 11:04:00,,0820.3,5.00,0.00,26.3,25.5,00.0,35.4,28.2,14.0,-000.2,0034.97,0016.07,0013.49
2022-03-04 11:05:00,,0820.3,4.98,0.00,26.3,25.5,00.0,35.4,28.2,14.0,-000.3,0034.75,0016.04,0013.47
2022-03-04 11:06:00,,0820.3,5.00,0.00,26.3,25.6,00.0,35.4,28.2,14.0,-000.4,0036.18,0016.02,0013.45
2022-03-04 11:07:00,,0820.3,5.00,0.00,26.3,25.6,00.0,35.4,28.1,14.0,-000.5,0036.13,0016.05,0013.41
2022-03-04 11:08:00,,0820.3,5.00,0.00,26.3,25.6,00.0,35.4,28.1,14.0,-000.4,0036.02,0015.93,0013.38
2022-03-04 11:09:00,,0820.3,5.00,0.00,26.3,25.5,00.0,35.4,28.1,14.0,-000.3,0036.72,0015.88,0013.35
2022-03-04 11:10:00,,0820.3,5.00,0.00,26.3,25.5,00.0,35.4,28.1,14.1,-000.4,0035.91,0015.88,0013.37
2022-03-04 11:11:00,,0820.3,5.00,0.00,26.3,25.5,00.0,35.4,28.1,14.1,-000.5,0036.67,0015.95,0013.40
2022-03-04 11:12:00,,0820.3,5.00,0.00,26.3,25.5,00.0,35.3,28.0,14.2,-000.5,0035.89,0016.01,0013.42
2022-03-04 11:13:00,,0820.2,5.00,0.00,26.2,25.4,00.0,35.3,28.0,14.2,-000.4,0036.29,0016.04,0013.46
2022-03-04 11:14:00,,0820.2,4.99,0.00,26.2,25.4,00.0,35.3,27.9,14.2,-000.4,0035.86,0016.07,0013.50
2022-03-04 11:15:00,,0820.2,5.00,0.00,26.2,25.3,00.0,35.3,27.9,14.1,-000.3,0035.26,0016.17,0013.53
2022-03-04 11:16:00,,0820.3,5.00,0.00,26.1,25.2,00.0,35.3,27.8,14.1,0000.0,0035.72,0016.26,0013.57
2022-03-04 11:17:00,,0820.3,5.00,0.00,26.1,25.2,00.0,35.3,27.8,14.1,0000.2,0034.08,0016.29,0013.60
2022-03-04 11:18:00,,0820.3,5.00,0.00,26.1,25.2,00.0,35.2,27.8,14.1,0000.3,0033.79,0016.34,0013.65
2022-03-04 11:19:00,,0820.2,5.01,0.00,26.1,25.1,00.0,35.2,27.8,14.1,0000.1,0033.88,0016.48,0013.70
2022-03-04 11:20:00,,0820.2,5.00,0.00,26.0,25.1,00.0,35.2,27.8,14.1,-000.0,0033.04,0016.68,0013.78
2022-03-04 11:21:00,,0820.2,5.00,0.00,26.0,25.1,00.0,35.2,27.8,14.1,-000.1,0032.86,0016.75,0013.82
2022-03-04 11:22:00,,0820.2,5.00,0.00,26.0,25.1,00.0,35.2,27.8,14.1,-000.1,0031.82,0016.75,0013.87
2022-03-04 11:23:00,,0820.3,4.99,0.00,26.0,25.1,00.0,35.2,27.7,14.1,0000.1,0031.82,0016.80,0013.95
2022-03-04 11:24:00,,0820.3,4.99,0.00,26.0,25.1,00.0,35.1,27.7,14.1,0000.0,0031.40,0016.91,0014.02
2022-03-04 11:25:00,,0820.3,5.00,0.00,26.0,25.1,00.0,35.1,27.8,14.2,0000.1,0031.97,0016.96,0014.08
2022-03-04 11:26:00,,0820.3,5.01,0.00,26.0,25.2,00.0,35.1,27.8,14.2,-000.0,0032.37,0016.92,0014.09
2022-03-04 11:27:00,,0820.2,5.01,0.00,26.0,25.2,00.0,35.1,27.8,14.3,-000.5,0032.66,0016.89,0014.06
2022-03-04 11:28:00,,0820.3,4.98,0.00,26.0,25.2,00.0,35.1,27.8,14.3,-000.5,0033.75,0016.88,0014.02
2022-03-04 11:29:00,,0820.3,5.00,0.00,26.0,25.1,00.0,35.1,27.7,14.3,-000.5,0033.20,0016.83,0013.97
2022-03-04 11:30:00,,0820.3,5.01,0.00,25.9,25.1,00.0,35.1,27.6,14.4,-000.2,0032.84,0016.70,0013.92
2022-03-04 11:31:00,,0820.3,5.00,0.00,25.9,25.0,00.0,35.0,27.6,14.4,-000.0,0033.96,0016.63,0013.88
2022-03-04 11:32:00,,0820.3,4.99,0.00,25.8,24.9,00.0,35.0,27.5,14.5,0000.1,0033.97,0016.64,0013.85
2022-03-04 11:33:00,,0820.2,5.01,0.00,25.8,24.9,00.0,35.0,27.5,14.5,0000.3,0034.06,0016.55,0013.79
2022-03-04 11:34:00,,0820.3,4.99,0.00,25.7,24.8,00.0,35.0,27.4,14.5,0000.3,0033.72,0016.46,0013.71
2022-03-04 11:35:00,,0820.3,5.02,0.00,25.7,24.8,00.0,34.9,27.4,14.6,0000.4,0033.93,0016.35,0013.65
2022-03-04 11:36:00,,0820.3,5.01,0.00,25.7,24.7,00.0,34.9,27.4,14.6,0000.3,0033.50,0016.33,0013.57
2022-03-04 11:37:00,,0820.2,4.98,0.00,25.7,24.7,00.0,34.9,27.4,14.6,0000.3,0034.45,0016.35,0013.56
2022-03-04 11:38:00,,0820.2,5.00,0.00,25.7,24.7,00.0,34.9,27.4,14.6,0000.8,0034.72,0016.38,0013.57
2022-03-04 11:39:00,,0820.3,5.01,0.00,25.7,24.8,00.0,34.9,27.4,14.5,0000.7,0034.08,0016.38,0013.59
2022-03-04 11:40:00,,0820.3,5.01,0.00,25.7,24.8,00.0,34.8,27.5,14.4,0000.4,0034.17,0016.34,0013.60
2022-03-04 11:41:00,,0820.2,5.00,0.00,25.7,24.9,00.0,34.8,27.5,14.4,0000.1,0034.07,0016.37,0013.65
2022-03-04 11:42:00,,0820.3,5.00,0.00,25.7,24.9,00.0,34.8,27.5,14.4,0000.0,0032.83,0016.32,0013.65
2022-03-04 11:43:00,,0820.3,5.01,0.00,25.7,24.9,00.0,34.8,27.5,14.4,-000.1,0034.08,0016.25,0013.66
2022-03-04 11:44:00,,0820.2,4.98,0.00,25.7,25.0,00.0,34.8,27.6,14.4,-000.3,0034.76,0016.28,0013.72
2022-03-04 11:45:00,,0820.2,5.00,0.00,25.8,25.0,00.0,34.8,27.6,14.5,-000.2,0035.71,0016.38,0013.76
2022-03-04 11:46:00,,0820.1,5.01,0.00,25.8,25.0,00.0,34.8,27.6,14.5,-000.2,0036.51,0016.41,0013.77
2022-03-04 11:47:00,,0820.1,5.01,0.00,25.8,25.0,00.0,34.8,27.6,14.5,-000.0,0036.63,0016.36,0013.78
2022-03-04 11:48:00,,0820.1,4.99,0.00,25.8,25.0,00.0,34.8,27.6,14.5,0000.3,0035.28,0016.28,0013.77
2022-03-04 11:49:00,,0820.1,5.01,0.00,25.8,25.1,00.0,34.8,27.6,14.5,0000.3,0034.54,0016.25,0013.76
2022-03-04 11:50:00,,0820.2,5.01,0.00,25.8,25.1,00.0,34.8,27.6,14.5,0000.5,0034.82,0016.36,0013.77
2022-03-04 11:51:00,,0820.2,5.01,0.00,25.8,25.1,00.0,34.8,27.6,14.5,0000.8,0035.73,0016.44,0013.79
2022-03-04 11:52:00,,0820.1,4.99,0.00,25.8,25.1,00.0,34.8,27.6,14.4,0000.9,0035.65,0016.50,0013.83
2022-03-04 11:53:00,,0820.1,5.00,0.00,25.8,25.1,00.0,34.8,27.6,14.4,0000.7,0036.50,0016.59,0013.86
2022-03-04 11:54:00,,0820.0,5.00,0.00,25.8,25.1,00.0,34.8,27.6,14.4,0000.6,0036.21,0016.64,0013.86
2022-03-04 11:55:00,,0820.0,5.01,0.00,25.8,25.1,00.0,34.8,27.6,14.4,0000.6,0036.27,0016.67,0013.83
2022-03-04 11:56:00,,0820.0,4.99,0.00,25.8,25.1,00.0,34.8,27.6,14.4,0000.7,0036.32,0016.67,0013.85
2022-03-04 11:57:00,,0820.0,5.00,0.00,25.8,25.1,00.0,34.8,27.6,14.4,0000.7,0035.59,0016.74,0013.91
2022-03-04 11:58:00,,0820.0,5.01,0.00,25.8,25.0,00.0,34.8,27.6,14.4,0000.4,0035.22,0016.84,0013.96
2022-03-04 11:59:00,,0820.0,5.00,0.00,25.7,25.0,00.0,34.8,27.5,14.5,0000.1,0035.34,0016.94,0013.98
